sat.trackr.live / text

‹ back to catalog

STARLINK-3826

NORAD 52347 · 2022-045S

PAYLOAD ACTIVE UNKNOWN

§ Identity

Operator
Country
US
Launch date
2022-04-29
Launch site
AFETR
Launch vehicle
Mass (kg)
RCS (m²)

Purposes: comms

External: N2YO · Heavens-Above · Gunter

§ Orbital elements

Epoch: 2026-05-25T03:50:55.929120Z

Period
95.44 min
Inclination
53.2133°
Eccentricity
0.0001237
Mean motion
15.08832798 rev/d
Perigee alt
538.9 km
Apogee alt
540.6 km
Semi-major
6,917.9 km
B*
6.0425e-6
RAAN
215.8395°
Arg perigee
100.5520°
Mean anomaly
259.5611°
Rev number
22,732

§ Raw data

STARLINK-38261 52347U 22045S   26145.16036955 -.00000192  00000+0  60425-5 0  99912 52347  53.2133 215.8395 0001237 100.5520 259.5611 15.08832798227325

JSON: /api/v1/satellites/52347 · /tle

For live sub-satellite position, see the globe view (requires WebGL).

§ Visibility from observer

Set your observer location to see the next 7 days of passes ≥ 10°. The values pass through the URL so the page stays shareable.

No JS? Fill the form by hand. The geolocation button needs JavaScript.